La Junta, CO

11:00 AM MDT on July 24, 2017 (GMT -0600)
La Junta Municipal

Weather History for KLHX - August, 2014

Change the Weather History Date:

Friday, August 8, 2014

  Actual Average Record
Temperature  
Mean Temperature 74 °F 77 °F  
Max Temperature 88 °F 92 °F 105 °F (1969)
Min Temperature 60 °F 63 °F 53 °F (1989)
Degree Days  
Heating Degree Days 0 0  
Month to date heating degree days 0 0  
Since 1 June heating degree days 5 17  
Since 1 July heating degree days 0 1  
Cooling Degree Days 9 12  
Month to date cooling degree days 82 101  
Year to date cooling degree days 921 832  
Since 1 June cooling degree days 799 759  
Growing Degree Days 24 (Base 50)    
Moisture  
Dew Point 59 °F    
Average Humidity 67    
Maximum Humidity 97    
Minimum Humidity 36    
Precipitation  
Precipitation 0.01 in 0.05 in 1.06 in (1945)
Month to date precipitation 0.15 0.47  
Year to date precipitation 8.68  
Sea Level Pressure  
Sea Level Pressure 29.90 in    
Wind  
Wind Speed 7 mph (East)    
Max Wind Speed 18 mph    
Max Gust Speed 22 mph    
Visibility 10 miles    
Events      
T = Trace of Precipitation, MM = Missing Value Source: NWS Daily Summary

Daily Weather History Graph

Daily Weather History Graph

Search for Another Location

Airport or City:

Trip Planner

Search our weather history database for the weather conditions in past years. The results will help you decide how hot, cold, wet, or windy it might be!

Date:

Astronomy

Aug. 08, 2014 Rise Set
Actual Time 6:03 AM MDT 7:55 PM MDT
Civil Twilight 5:34 AM MDT 8:24 PM MDT
Nautical Twilight 4:59 AM MDT 8:58 PM MDT
Astronomical Twilight 4:22 AM MDT 9:36 PM MDT
Moon 6:08 PM MDT (8/8) 3:38 AM MDT (8/8)
Length of Visible Light 14h 49m
Length of Day
13h 52m
Waxing Gibbous, 94% of the Moon is Illuminated
Aug 8
Waxing Gibbous
Aug 10
Full
Aug 17
Last Quarter
Aug 25
New
Sep 2
First Quarter

Hourly Weather History & Observations

Time (MDT) Temp. Heat Index Dew Point Humidity Pressure Visibility Wind Dir Wind Speed Gust Speed Precip Events Conditions
12:53 AM 63.0 °F - 60.1 °F 90% 29.95 in 10.0 mi NNW 9.2 mph - N/A   Partly Cloudy
1:53 AM 64.0 °F - 60.1 °F 87% 29.94 in 10.0 mi North 11.5 mph - 0.00 in   Partly Cloudy
2:53 AM 63.0 °F - 61.0 °F 93% 29.94 in 10.0 mi North 4.6 mph - 0.01 in   Partly Cloudy
3:53 AM 64.9 °F - 60.1 °F 84% 29.94 in 10.0 mi Calm Calm - N/A   Clear
4:53 AM 63.0 °F - 59.0 °F 87% 29.94 in 10.0 mi SSW 6.9 mph - N/A   Clear
5:53 AM 62.1 °F - 59.0 °F 90% 29.94 in 10.0 mi SW 10.4 mph - N/A   Partly Cloudy
6:53 AM 61.0 °F - 59.0 °F 93% 29.96 in 10.0 mi West 9.2 mph - N/A   Clear
7:53 AM 66.9 °F - 59.0 °F 76% 29.96 in 10.0 mi WSW 6.9 mph - N/A   Clear
8:53 AM 71.1 °F - 57.9 °F 63% 29.96 in 10.0 mi WSW 8.1 mph - N/A   Clear
9:53 AM 73.9 °F - 57.9 °F 57% 29.94 in 10.0 mi Calm Calm - N/A   Clear
10:53 AM 77.0 °F - 55.9 °F 48% 29.95 in 10.0 mi Variable 4.6 mph - N/A   Clear
11:53 AM 81.0 °F 80.7 °F 55.0 °F 41% 29.93 in 10.0 mi Calm Calm - N/A   Clear
12:53 PM 82.9 °F 82.0 °F 55.0 °F 38% 29.91 in 10.0 mi ESE 5.8 mph - N/A   Clear
1:53 PM 84.9 °F 83.7 °F 55.9 °F 37% 29.87 in 10.0 mi ESE 9.2 mph - N/A   Clear
2:53 PM 87.1 °F 85.9 °F 57.0 °F 36% 29.86 in 10.0 mi ESE 12.7 mph 19.6 mph N/A   Clear
3:53 PM 84.9 °F 84.4 °F 59.0 °F 41% 29.84 in 10.0 mi ESE 12.7 mph - N/A   Clear
4:53 PM 84.9 °F 84.4 °F 59.0 °F 41% 29.82 in 10.0 mi ESE 12.7 mph - N/A   Clear
5:53 PM 86.0 °F 85.4 °F 59.0 °F 40% 29.82 in 10.0 mi ESE 9.2 mph - N/A   Clear
6:53 PM 84.0 °F 84.0 °F 60.1 °F 44% 29.83 in 10.0 mi ENE 6.9 mph - N/A   Clear
7:53 PM 78.1 °F - 61.0 °F 56% 29.82 in 10.0 mi East 9.2 mph - N/A   Clear
8:53 PM 75.9 °F - 62.1 °F 62% 29.83 in 10.0 mi East 10.4 mph - N/A   Clear
9:53 PM 73.0 °F - 62.1 °F 68% 29.86 in 10.0 mi ENE 5.8 mph - N/A   Clear
10:53 PM 69.1 °F - 63.0 °F 81% 29.88 in 10.0 mi ENE 4.6 mph - N/A   Clear
11:53 PM 68.0 °F - 64.0 °F 87% 29.87 in 10.0 mi East 5.8 mph - N/A   Clear